QPF
0.00 0.00 0.00 0.00 0.00 0.00 0.00 0.00 0.00 0.00 0.00 0.00 0.00 0.00 0.00 0.00 0.00 0.02 0.02 0.01 0.02 0.02 0.02 0.03 0.03 0.05 0.06 0.07 0.07 0.07 0.06 0.06 0.05 0.04 0.02 0.01 0.04 0.04 0.03 0.04 0.07 0.06 0.04
0.00 0.00 0.00 0.00 0.00 0.00 0.00 0.00 0.00 0.00 0.00 0.00 0.00 0.00 0.00 0.00 0.01 0.03 0.04 0.03 0.03 0.02 0.02 0.04 0.06 0.07 0.09 0.08 0.08 0.09 0.08 0.07 0.06 0.04 0.03 0.02 0.02 0.03 0.03 0.05 0.08 0.09 0.07
0.00 0.00 0.00 0.00 0.00 0.00 0.00 0.00 0.00 0.00 0.00 0.00 0.00 0.00 0.00 0.00 0.00 0.02 0.06 0.07 0.03 0.01 0.03 0.06 0.08 0.08 0.07 0.07 0.08 0.08 0.06 0.05 0.05 0.04 0.02 0.02 0.04 0.03 0.04 0.06 0.07 0.10 0.10
0.00 0.00 0.00 0.00 0.00 0.00 0.00 0.00 0.00 0.00 0.00 0.00 0.00 0.00 0.00 0.00 0.00 0.02 0.09 0.08 0.02 0.01 0.02 0.05 0.08 0.11 0.09 0.08 0.06 0.04 0.04 0.04 0.04 0.05 0.04 0.03 0.04 0.05 0.06 0.06 0.06 0.11 0.11
0.00 0.00 0.00 0.00 0.00 0.00 0.00 0.00 0.00 0.00 0.00 0.00 0.00 0.00 0.00 0.00 0.00 0.06 0.16 0.11 0.02 0.01 0.02 0.04 0.09 0.14 0.13 0.14 0.10 0.06 0.04 0.03 0.04 0.05 0.06 0.06 0.06 0.07 0.08 0.08 0.08 0.10 0.11
0.00 0.00 0.00 0.00 0.00 0.00 0.00 0.00 0.00 0.00 0.00 0.00 0.00 0.00 0.00 0.00 0.03 0.16 0.21 0.06 0.02 0.03 0.04 0.04 0.06 0.10 0.11 0.10 0.10 0.09 0.08 0.05 0.04 0.05 0.08 0.09 0.09 0.11 0.11 0.14 0.12 0.08 0.09
0.00 0.00 0.00 0.00 0.00 0.00 0.00 0.00 0.00 0.00 0.00 0.00 0.00 0.00 0.00 0.00 0.07 0.27 0.15 0.02 0.03 0.06 0.04 0.03 0.04 0.07 0.07 0.07 0.08 0.08 0.08 0.11 0.12 0.10 0.14 0.15 0.13 0.13 0.15 0.19 0.17 0.11 0.09
0.00 0.00 0.00 0.00 0.00 0.00 0.00 0.00 0.00 0.00 0.00 0.00 0.00 0.00 0.00 0.00 0.09 0.25 0.08 0.01 0.04 0.05 0.03 0.03 0.03 0.04 0.06 0.05 0.07 0.08 0.10 0.15 0.19 0.19 0.27 0.30 0.23 0.19 0.20 0.27 0.27 0.18 0.13
0.00 0.00 0.00 0.00 0.00 0.00 0.00 0.00 0.00 0.00 0.00 0.00 0.00 0.00 0.00 0.00 0.07 0.18 0.04 0.01 0.03 0.04 0.02 0.02 0.02 0.02 0.02 0.01 0.02 0.04 0.05 0.09 0.13 0.15 0.20 0.28 0.30 0.31 0.34 0.38 0.42 0.30 0.23
0.00 0.00 0.00 0.00 0.00 0.00 0.00 0.00 0.00 0.00 0.00 0.00 0.00 0.00 0.00 0.00 0.04 0.10 0.04 0.00 0.01 0.02 0.01 0.01 0.02 0.02 0.01 0.00 0.00 0.01 0.01 0.03 0.06 0.08 0.12 0.20 0.27 0.33 0.41 0.53 0.65 0.51 0.34
0.00 0.00 0.00 0.00 0.00 0.00 0.00 0.00 0.00 0.00 0.00 0.00 0.00 0.00 0.00 0.00 0.01 0.04 0.03 0.02 0.01 0.01 0.01 0.00 0.01 0.01 0.01 0.00 0.00 0.00 0.00 0.01 0.02 0.05 0.08 0.15 0.21 0.29 0.40 0.53 0.66 0.65 0.45
0.00 0.00 0.00 0.00 0.00 0.00 0.00 0.00 0.00 0.00 0.00 0.00 0.01 0.00 0.00 0.00 0.01 0.02 0.01 0.02 0.02 0.01 0.01 0.00 0.00 0.00 0.00 0.00 0.00 0.00 0.00 0.00 0.01 0.02 0.05 0.09 0.14 0.20 0.30 0.43 0.57 0.63 0.57
0.00 0.00 0.00 0.00 0.00 0.00 0.00 0.00 0.01 0.01 0.01 0.02 0.01 0.01 0.00 0.00 0.01 0.01 0.00 0.01 0.01 0.01 0.00 0.00 0.00 0.00 0.00 0.00 0.00 0.00 0.00 0.00 0.00 0.01 0.02 0.05 0.08 0.13 0.17 0.23 0.33 0.44 0.48
0.00 0.00 0.00 0.00 0.00 0.00 0.00 0.01 0.01 0.02 0.05 0.03 0.01 0.01 0.00 0.00 0.03 0.02 0.00 0.00 0.00 0.00 0.00 0.00 0.00 0.00 0.00 0.00 0.00 0.00 0.00 0.00 0.00 0.00 0.00 0.01 0.03 0.05 0.09 0.14 0.16 0.22 0.28
0.00 0.00 0.00 0.00 0.00 0.00 0.00 0.00 0.01 0.03 0.07 0.04 0.02 0.01 0.01 0.02 0.06 0.02 0.00 0.00 0.00 0.00 0.00 0.00 0.00 0.00 0.00 0.00 0.00 0.00 0.00 0.00 0.00 0.00 0.00 0.00 0.01 0.02 0.04 0.07 0.11 0.13 0.15
0.00 0.00 0.00 0.00 0.00 0.00 0.00 0.00 0.01 0.02 0.04 0.03 0.03 0.02 0.00 0.02 0.05 0.01 0.00 0.00 0.00 0.00 0.00 0.00 0.00 0.00 0.00 0.00 0.00 0.00 0.00 0.00 0.00 0.00 0.00 0.00 0.00 0.00 0.01 0.02 0.04 0.06 0.08
0.00 0.00 0.00 0.00 0.00 0.00 0.00 0.00 0.00 0.01 0.01 0.01 0.02 0.01 0.01 0.01 0.02 0.00 0.00 0.00 0.00 0.00 0.00 0.00 0.00 0.00 0.00 0.00 0.00 0.00 0.00 0.00 0.00 0.00 0.00 0.00 0.00 0.00 0.00 0.00 0.01 0.02 0.03
0.00 0.00 0.00 0.00 0.00 0.00 0.00 0.00 0.01 0.01 0.01 0.00 0.00 0.01 0.01 0.00 0.00 0.00 0.00 0.00 0.00 0.00 0.00 0.00 0.00 0.00 0.00 0.00 0.00 0.00 0.00 0.00 0.00 0.00 0.00 0.00 0.00 0.00 0.00 0.00 0.00 0.00 0.00
0.00 0.00 0.00 0.00 0.00 0.00 0.00 0.00 0.00 0.01 0.01 0.00 0.00 0.00 0.00 0.00 0.00 0.00 0.00 0.00 0.00 0.00 0.00 0.00 0.00 0.00 0.00 0.00 0.00 0.00 0.00 0.00 0.00 0.00 0.00 0.00 0.00 0.00 0.00 0.00 0.00 0.00 0.00
0.00 0.00 0.00 0.00 0.00 0.00 0.00 0.00 0.00 0.00 0.00 0.00 0.00 0.01 0.01 0.00 0.00 0.00 0.00 0.00 0.00 0.00 0.00 0.00 0.00 0.00 0.00 0.00 0.00 0.00 0.00 0.00 0.00 0.00 0.00 0.00 0.00 0.00 0.00 0.00 0.00 0.00 0.00
0.00 0.00 0.00 0.00 0.00 0.00 0.00 0.00 0.00 0.00 0.00 0.00 0.00 0.01 0.01 0.00 0.00 0.00 0.00 0.00 0.00 0.00 0.00 0.00 0.00 0.00 0.00 0.00 0.00 0.00 0.00 0.00 0.00 0.00 0.00 0.00 0.00 0.00 0.00 0.00 0.00 0.00 0.00
0.00 0.00 0.00 0.00 0.00 0.00 0.00 0.00 0.00 0.00 0.00 0.00 0.00 0.00 0.00 0.00 0.00 0.00 0.00 0.00 0.00 0.00 0.00 0.00 0.00 0.00 0.00 0.00 0.00 0.00 0.00 0.00 0.00 0.00 0.00 0.00 0.00 0.00 0.00 0.00 0.00 0.00 0.00
0.00 0.00 0.00 0.00 0.00 0.00 0.00 0.00 0.00 0.00 0.00 0.00 0.00 0.00 0.00 0.00 0.00 0.00 0.00 0.00 0.00 0.00 0.00 0.00 0.00 0.00 0.00 0.00 0.00 0.00 0.00 0.00 0.00 0.00 0.00 0.00 0.00 0.00 0.00 0.00 0.00 0.00 0.00
0.00 0.00 0.00 0.00 0.00 0.00 0.00 0.00 0.00 0.00 0.00 0.00 0.00 0.00 0.00 0.00 0.00 0.00 0.00 0.00 0.00 0.00 0.00 0.00 0.00 0.00 0.00 0.00 0.00 0.00 0.00 0.00 0.00 0.01 0.01 0.01 0.01 0.01 0.01 0.01 0.00 0.00 0.00
0.00 0.00 0.00 0.00 0.00 0.00 0.00 0.00 0.00 0.00 0.01 0.01 0.01 0.01 0.01 0.01 0.01 0.01 0.01 0.00 0.00 0.00 0.00 0.00 0.00 0.00 0.00 0.00 0.00 0.00 0.00 0.00 0.01 0.02 0.02 0.01 0.01 0.01 0.01 0.01 0.00 0.00 0.00
0.00 0.00 0.00 0.00 0.00 0.00 0.01 0.01 0.00 0.01 0.02 0.02 0.02 0.02 0.03 0.03 0.03 0.02 0.02 0.02 0.02 0.01 0.01 0.00 0.00 0.00 0.00 0.00 0.00 0.00 0.00 0.00 0.01 0.02 0.02 0.02 0.01 0.01 0.01 0.00 0.00 0.00 0.00
MSLP
1034.40 1034.06 1033.64 1033.15 1032.58 1031.94 1031.28 1030.60 1029.93 1029.27 1028.63 1027.97 1027.27 1026.50 1025.65 1024.71 1023.70 1022.66 1021.62 1020.65 1019.77 1019.00 1018.33 1017.72 1017.14 1016.51 1015.78 1014.91 1013.90 1012.76 1011.56 1010.36 1009.25 1008.29 1007.54 1007.03 1006.74 1006.64 1006.69 1006.81 1006.96 1007.10 1007.22
1034.46 1034.11 1033.69 1033.18 1032.59 1031.94 1031.26 1030.57 1029.88 1029.20 1028.52 1027.83 1027.10 1026.29 1025.40 1024.42 1023.38 1022.30 1021.22 1020.20 1019.27 1018.45 1017.72 1017.05 1016.41 1015.73 1014.97 1014.10 1013.11 1012.03 1010.91 1009.82 1008.82 1007.98 1007.34 1006.91 1006.68 1006.62 1006.66 1006.76 1006.87 1006.95 1007.00
1034.47 1034.10 1033.67 1033.15 1032.56 1031.90 1031.21 1030.50 1029.78 1029.07 1028.35 1027.62 1026.84 1026.00 1025.08 1024.08 1023.01 1021.92 1020.84 1019.81 1018.86 1018.01 1017.24 1016.54 1015.85 1015.13 1014.35 1013.48 1012.52 1011.50 1010.47 1009.48 1008.59 1007.85 1007.30 1006.93 1006.73 1006.67 1006.68 1006.74 1006.78 1006.81 1006.80
1034.41 1034.04 1033.60 1033.08 1032.49 1031.84 1031.14 1030.41 1029.67 1028.92 1028.17 1027.39 1026.57 1025.68 1024.74 1023.73 1022.67 1021.59 1020.54 1019.53 1018.60 1017.75 1016.98 1016.26 1015.56 1014.83 1014.04 1013.19 1012.27 1011.31 1010.36 1009.46 1008.65 1007.99 1007.48 1007.14 1006.94 1006.83 1006.78 1006.76 1006.74 1006.70 1006.65
1034.29 1033.91 1033.48 1032.97 1032.39 1031.75 1031.05 1030.32 1029.56 1028.79 1027.99 1027.17 1026.31 1025.40 1024.43 1023.42 1022.39 1021.36 1020.35 1019.40 1018.52 1017.71 1016.97 1016.27 1015.58 1014.86 1014.10 1013.27 1012.40 1011.50 1010.62 1009.78 1009.04 1008.42 1007.93 1007.57 1007.31 1007.12 1006.98 1006.86 1006.75 1006.65 1006.56
1034.13 1033.75 1033.31 1032.82 1032.27 1031.65 1030.97 1030.24 1029.48 1028.68 1027.86 1027.00 1026.11 1025.18 1024.21 1023.22 1022.23 1021.25 1020.32 1019.44 1018.64 1017.90 1017.21 1016.56 1015.90 1015.21 1014.48 1013.70 1012.88 1012.04 1011.22 1010.43 1009.73 1009.12 1008.61 1008.19 1007.84 1007.55 1007.29 1007.06 1006.84 1006.67 1006.57
1033.96 1033.56 1033.13 1032.65 1032.12 1031.52 1030.87 1030.16 1029.40 1028.60 1027.77 1026.89 1025.98 1025.05 1024.09 1023.14 1022.20 1021.29 1020.44 1019.66 1018.94 1018.29 1017.67 1017.07 1016.46 1015.82 1015.14 1014.40 1013.63 1012.85 1012.07 1011.33 1010.65 1010.02 1009.47 1008.98 1008.53 1008.11 1007.71 1007.35 1007.04 1006.80 1006.67
1033.78 1033.36 1032.92 1032.45 1031.94 1031.37 1030.74 1030.06 1029.32 1028.54 1027.71 1026.84 1025.94 1025.02 1024.10 1023.19 1022.31 1021.49 1020.73 1020.04 1019.41 1018.84 1018.29 1017.75 1017.19 1016.60 1015.96 1015.27 1014.55 1013.82 1013.09 1012.38 1011.71 1011.07 1010.47 1009.90 1009.34 1008.79 1008.26 1007.77 1007.35 1007.04 1006.89
1033.61 1033.16 1032.71 1032.23 1031.73 1031.18 1030.58 1029.93 1029.22 1028.47 1027.66 1026.82 1025.95 1025.07 1024.20 1023.36 1022.56 1021.82 1021.15 1020.55 1020.01 1019.51 1019.02 1018.54 1018.02 1017.47 1016.87 1016.23 1015.55 1014.87 1014.18 1013.50 1012.85 1012.20 1011.56 1010.92 1010.27 1009.61 1008.96 1008.36 1007.83 1007.45 1007.26
1033.48 1032.99 1032.50 1032.01 1031.50 1030.97 1030.39 1029.77 1029.10 1028.39 1027.63 1026.84 1026.02 1025.21 1024.40 1023.64 1022.92 1022.27 1021.68 1021.16 1020.69 1020.25 1019.82 1019.37 1018.89 1018.37 1017.80 1017.20 1016.57 1015.93 1015.29 1014.66 1014.03 1013.39 1012.74 1012.06 1011.34 1010.59 1009.85 1009.15 1008.54 1008.07 1007.83
1033.40 1032.86 1032.34 1031.82 1031.29 1030.76 1030.20 1029.61 1028.98 1028.32 1027.62 1026.90 1026.15 1025.41 1024.69 1024.00 1023.37 1022.80 1022.30 1021.85 1021.43 1021.04 1020.65 1020.23 1019.77 1019.27 1018.74 1018.17 1017.58 1017.00 1016.41 1015.83 1015.24 1014.64 1014.00 1013.31 1012.57 1011.78 1010.98 1010.20 1009.51 1008.98 1008.67
1033.38 1032.80 1032.24 1031.68 1031.14 1030.60 1030.05 1029.49 1028.91 1028.30 1027.66 1027.01 1026.34 1025.68 1025.04 1024.44 1023.89 1023.40 1022.97 1022.57 1022.21 1021.86 1021.49 1021.09 1020.66 1020.18 1019.67 1019.14 1018.60 1018.07 1017.54 1017.03 1016.50 1015.96 1015.37 1014.71 1013.98 1013.18 1012.36 1011.54 1010.81 1010.21 1009.83
1033.45 1032.83 1032.23 1031.65 1031.08 1030.53 1030.00 1029.46 1028.92 1028.36 1027.79 1027.20 1026.61 1026.03 1025.47 1024.94 1024.47 1024.04 1023.66 1023.32 1023.00 1022.67 1022.33 1021.96 1021.54 1021.09 1020.62 1020.13 1019.64 1019.16 1018.70 1018.26 1017.82 1017.35 1016.82 1016.23 1015.55 1014.80 1013.99 1013.18 1012.42 1011.79 1011.35
1033.59 1032.95 1032.33 1031.72 1031.14 1030.59 1030.07 1029.55 1029.05 1028.54 1028.02 1027.49 1026.97 1026.45 1025.95 1025.49 1025.07 1024.69 1024.36 1024.05 1023.76 1023.47 1023.16 1022.81 1022.42 1022.01 1021.57 1021.12 1020.69 1020.27 1019.89 1019.52 1019.16 1018.78 1018.34 1017.84 1017.24 1016.57 1015.82 1015.05 1014.31 1013.66 1013.18
1033.80 1033.16 1032.52 1031.91 1031.33 1030.79 1030.28 1029.79 1029.31 1028.84 1028.36 1027.88 1027.40 1026.92 1026.47 1026.04 1025.66 1025.32 1025.02 1024.74 1024.48 1024.22 1023.93 1023.62 1023.28 1022.90 1022.51 1022.11 1021.73 1021.38 1021.06 1020.77 1020.48 1020.18 1019.85 1019.44 1018.95 1018.38 1017.73 1017.04 1016.36 1015.74 1015.24
1034.04 1033.41 1032.78 1032.18 1031.62 1031.09 1030.60 1030.13 1029.68 1029.23 1028.78 1028.33 1027.87 1027.42 1026.98 1026.57 1026.21 1025.88 1025.59 1025.34 1025.11 1024.88 1024.63 1024.36 1024.06 1023.74 1023.40 1023.06 1022.73 1022.43 1022.16 1021.93 1021.71 1021.49 1021.24 1020.93 1020.55 1020.09 1019.56 1018.99 1018.40 1017.84 1017.38
1034.27 1033.66 1033.06 1032.48 1031.94 1031.44 1030.97 1030.53 1030.10 1029.67 1029.23 1028.79 1028.33 1027.88 1027.44 1027.03 1026.66 1026.34 1026.06 1025.82 1025.61 1025.42 1025.21 1024.99 1024.75 1024.48 1024.19 1023.90 1023.62 1023.36 1023.13 1022.94 1022.76 1022.59 1022.41 1022.19 1021.92 1021.58 1021.18 1020.73 1020.25 1019.80 1019.40
1034.44 1033.86 1033.29 1032.75 1032.24 1031.77 1031.33 1030.91 1030.50 1030.07 1029.64 1029.19 1028.72 1028.26 1027.80 1027.38 1026.99 1026.66 1026.38 1026.16 1025.97 1025.80 1025.64 1025.47 1025.28 1025.07 1024.83 1024.59 1024.35 1024.12 1023.91 1023.73 1023.58 1023.44 1023.30 1023.14 1022.95 1022.72 1022.44 1022.12 1021.78 1021.44 1021.13
1034.51 1033.97 1033.44 1032.94 1032.46 1032.03 1031.61 1031.21 1030.80 1030.38 1029.94 1029.47 1028.99 1028.50 1028.02 1027.58 1027.17 1026.83 1026.55 1026.33 1026.16 1026.02 1025.90 1025.77 1025.63 1025.47 1025.29 1025.08 1024.86 1024.65 1024.45 1024.27 1024.12 1023.98 1023.86 1023.74 1023.61 1023.46 1023.29 1023.09 1022.88 1022.66 1022.45
1034.49 1033.98 1033.48 1033.02 1032.58 1032.17 1031.78 1031.38 1030.98 1030.55 1030.10 1029.61 1029.10 1028.59 1028.09 1027.62 1027.19 1026.84 1026.55 1026.33 1026.17 1026.06 1025.96 1025.88 1025.78 1025.66 1025.51 1025.34 1025.14 1024.94 1024.74 1024.55 1024.38 1024.24 1024.12 1024.01 1023.92 1023.83 1023.73 1023.63 1023.53 1023.42 1023.32
1034.38 1033.90 1033.44 1033.01 1032.60 1032.21 1031.83 1031.44 1031.02 1030.58 1030.11 1029.60 1029.07 1028.53 1028.00 1027.51 1027.07 1026.69 1026.40 1026.17 1026.02 1025.91 1025.83 1025.77 1025.70 1025.61 1025.49 1025.34 1025.16 1024.97 1024.77 1024.57 1024.39 1024.23 1024.10 1024.01 1023.93 1023.88 1023.84 1023.81 1023.79 1023.77 1023.75
1034.23 1033.78 1033.35 1032.95 1032.56 1032.18 1031.79 1031.40 1030.97 1030.50 1030.00 1029.46 1028.91 1028.34 1027.79 1027.28 1026.82 1026.42 1026.11 1025.87 1025.70 1025.59 1025.51 1025.45 1025.39 1025.31 1025.21 1025.08 1024.92 1024.73 1024.54 1024.35 1024.17 1024.02 1023.89 1023.80 1023.74 1023.71 1023.71 1023.73 1023.76 1023.81 1023.86
1034.10 1033.69 1033.29 1032.90 1032.52 1032.14 1031.74 1031.32 1030.87 1030.37 1029.84 1029.27 1028.68 1028.09 1027.51 1026.97 1026.48 1026.06 1025.72 1025.44 1025.24 1025.09 1024.98 1024.90 1024.82 1024.74 1024.64 1024.52 1024.38 1024.23 1024.06 1023.90 1023.75 1023.62 1023.52 1023.45 1023.42 1023.42 1023.45 1023.50 1023.57 1023.65 1023.74
1034.05 1033.67 1033.30 1032.93 1032.55 1032.16 1031.74 1031.29 1030.79 1030.26 1029.68 1029.07 1028.44 1027.82 1027.21 1026.63 1026.11 1025.65 1025.25 1024.92 1024.65 1024.44 1024.27 1024.14 1024.02 1023.91 1023.79 1023.68 1023.56 1023.44 1023.33 1023.22 1023.13 1023.06 1023.02 1023.01 1023.02 1023.06 1023.13 1023.21 1023.30 1023.41 1023.52
1034.09 1033.75 1033.42 1033.06 1032.69 1032.28 1031.84 1031.34 1030.80 1030.21 1029.58 1028.93 1028.26 1027.59 1026.94 1026.32 1025.74 1025.22 1024.74 1024.33 1023.98 1023.67 1023.41 1023.19 1022.99 1022.83 1022.68 1022.56 1022.46 1022.38 1022.33 1022.30 1022.30 1022.32 1022.37 1022.44 1022.54 1022.64 1022.76 1022.88 1023.01 1023.13 1023.26
1034.23 1033.95 1033.64 1033.31 1032.94 1032.51 1032.03 1031.50 1030.90 1030.26 1029.58 1028.87 1028.15 1027.43 1026.73 1026.05 1025.41 1024.80 1024.24 1023.73 1023.26 1022.83 1022.44 1022.10 1021.80 1021.55 1021.35 1021.20 1021.10 1021.06 1021.07 1021.13 1021.24 1021.38 1021.54 1021.73 1021.92 1022.12 1022.30 1022.48 1022.64 1022.79 1022.93
Thickness
5240 5230 5221 5214 5208 5202 5195 5190 5186 5182 5178 5176 5174 5173 5172 5175 5178 5185 5194 5206 5217 5231 5244 5255 5264 5273 5283 5294 5309 5330 5354 5378 5407 5437 5456 5476 5493 5508 5523 5534 5544 5553 5563
5233 5223 5214 5207 5200 5193 5187 5181 5176 5172 5168 5164 5161 5161 5162 5164 5167 5173 5183 5196 5208 5222 5234 5245 5256 5267 5278 5291 5305 5324 5347 5371 5396 5420 5441 5459 5476 5492 5505 5518 5530 5542 5551
5226 5217 5209 5200 5193 5185 5178 5172 5166 5162 5157 5152 5148 5148 5150 5154 5158 5165 5174 5187 5200 5212 5224 5236 5248 5260 5274 5288 5303 5320 5339 5363 5384 5406 5427 5445 5462 5478 5492 5505 5517 5529 5540
5221 5212 5203 5194 5185 5177 5168 5161 5154 5148 5142 5137 5132 5132 5136 5143 5150 5159 5168 5180 5192 5202 5214 5226 5239 5253 5267 5283 5301 5317 5334 5354 5373 5393 5413 5431 5447 5464 5478 5492 5503 5515 5527
5218 5209 5199 5189 5179 5169 5160 5151 5142 5133 5124 5116 5112 5115 5122 5131 5142 5153 5166 5176 5184 5192 5203 5216 5229 5244 5258 5273 5290 5306 5326 5346 5363 5382 5400 5417 5432 5447 5464 5479 5490 5501 5512
5216 5207 5197 5186 5175 5164 5153 5143 5130 5117 5106 5097 5094 5099 5109 5120 5134 5150 5163 5168 5175 5183 5193 5205 5218 5233 5247 5261 5276 5291 5309 5328 5345 5363 5381 5398 5412 5428 5446 5463 5477 5489 5500
5215 5205 5194 5182 5171 5159 5147 5134 5118 5103 5091 5084 5083 5089 5099 5111 5125 5141 5151 5156 5165 5174 5183 5195 5207 5221 5236 5248 5262 5276 5291 5308 5324 5338 5355 5372 5390 5408 5427 5451 5468 5479 5485
5214 5203 5192 5180 5168 5156 5142 5126 5110 5094 5082 5077 5078 5084 5093 5105 5118 5131 5140 5146 5154 5163 5173 5184 5196 5210 5226 5238 5250 5264 5278 5292 5307 5322 5338 5355 5372 5391 5410 5429 5451 5460 5466
5213 5202 5191 5179 5167 5153 5139 5123 5106 5089 5079 5075 5076 5081 5089 5099 5111 5122 5128 5135 5142 5150 5160 5171 5185 5198 5215 5228 5241 5255 5267 5280 5293 5307 5323 5340 5356 5376 5395 5413 5431 5448 5454
5211 5200 5189 5178 5165 5152 5138 5122 5104 5088 5079 5076 5076 5079 5085 5093 5103 5113 5118 5122 5129 5137 5146 5157 5172 5187 5201 5216 5228 5243 5257 5267 5281 5296 5311 5327 5342 5358 5373 5386 5404 5433 5445
5208 5199 5189 5178 5166 5155 5140 5124 5107 5091 5081 5076 5076 5079 5083 5089 5096 5105 5112 5113 5117 5125 5134 5145 5158 5173 5187 5202 5215 5229 5242 5254 5266 5280 5294 5308 5323 5338 5351 5365 5381 5405 5425
5208 5200 5191 5180 5169 5158 5144 5129 5113 5097 5086 5079 5077 5079 5082 5086 5092 5099 5105 5108 5112 5116 5124 5135 5147 5160 5173 5187 5201 5214 5228 5241 5254 5265 5277 5289 5302 5316 5332 5346 5362 5381 5401
5210 5203 5193 5184 5174 5162 5149 5136 5121 5106 5093 5084 5080 5079 5081 5084 5087 5093 5097 5101 5105 5110 5117 5129 5139 5149 5160 5172 5186 5200 5213 5226 5239 5251 5260 5270 5282 5297 5315 5332 5348 5364 5381
5212 5205 5196 5188 5178 5166 5154 5141 5128 5115 5103 5089 5083 5080 5081 5083 5086 5089 5091 5094 5099 5104 5109 5118 5128 5138 5149 5161 5173 5184 5196 5209 5221 5233 5244 5256 5269 5284 5299 5314 5329 5343 5357
5214 5207 5198 5190 5181 5169 5157 5146 5135 5122 5111 5101 5091 5085 5083 5084 5088 5091 5091 5093 5096 5099 5102 5109 5119 5129 5139 5150 5161 5171 5182 5194 5205 5217 5229 5243 5256 5269 5282 5294 5306 5317 5329
5219 5210 5201 5194 5185 5174 5162 5151 5142 5133 5124 5114 5105 5097 5091 5090 5090 5090 5090 5092 5094 5096 5097 5101 5108 5117 5127 5137 5148 5158 5169 5179 5190 5201 5212 5225 5238 5250 5263 5274 5285 5294 5304
5220 5213 5205 5197 5189 5180 5170 5160 5151 5142 5133 5125 5118 5110 5103 5098 5094 5092 5091 5091 5092 5092 5092 5094 5100 5108 5117 5127 5137 5147 5157 5167 5176 5186 5197 5208 5220 5232 5244 5255 5265 5274 5282
5224 5217 5210 5201 5193 5184 5176 5167 5159 5151 5142 5133 5127 5121 5115 5109 5102 5097 5094 5091 5089 5089 5089 5091 5095 5102 5110 5119 5129 5138 5148 5158 5167 5175 5184 5194 5204 5215 5226 5236 5246 5254 5263
5228 5222 5215 5206 5199 5190 5183 5174 5167 5159 5151 5142 5135 5130 5126 5120 5113 5107 5100 5094 5090 5088 5088 5090 5093 5098 5104 5112 5121 5131 5140 5150 5158 5166 5174 5182 5191 5200 5209 5219 5229 5239 5245
5231 5226 5221 5212 5205 5197 5190 5182 5174 5168 5161 5154 5147 5141 5136 5129 5123 5117 5111 5104 5098 5093 5091 5091 5093 5097 5101 5107 5115 5124 5133 5142 5151 5159 5166 5174 5182 5190 5198 5206 5214 5221 5229
5234 5229 5224 5217 5210 5203 5196 5189 5182 5176 5170 5164 5158 5154 5150 5141 5134 5128 5123 5117 5111 5105 5101 5098 5097 5098 5101 5105 5110 5117 5125 5134 5142 5150 5159 5167 5174 5182 5189 5197 5204 5211 5218
5238 5232 5227 5221 5216 5210 5205 5197 5191 5185 5180 5174 5169 5165 5161 5154 5147 5141 5136 5130 5125 5120 5115 5111 5107 5105 5105 5106 5109 5113 5119 5126 5134 5142 5150 5158 5166 5174 5181 5188 5195 5202 5210
5241 5235 5230 5225 5221 5217 5211 5206 5200 5195 5190 5185 5180 5176 5172 5167 5161 5156 5151 5146 5140 5135 5130 5126 5122 5118 5116 5114 5114 5115 5117 5122 5128 5135 5142 5149 5156 5163 5171 5177 5184 5191 5198
5244 5238 5232 5229 5226 5222 5217 5213 5208 5204 5201 5196 5192 5187 5182 5178 5174 5170 5166 5162 5157 5151 5146 5141 5137 5133 5130 5126 5124 5122 5121 5122 5125 5129 5135 5140 5146 5153 5160 5166 5173 5180 5187
5247 5241 5235 5231 5227 5224 5220 5217 5214 5210 5208 5205 5201 5197 5194 5190 5187 5184 5180 5176 5172 5167 5163 5157 5153 5148 5145 5140 5137 5133 5130 5127 5127 5127 5129 5133 5137 5142 5149 5156 5163 5170 5177
5248 5243 5237 5232 5229 5225 5222 5219 5216 5213 5212 5210 5207 5204 5202 5199 5197 5195 5192 5189 5186 5182 5178 5173 5168 5164 5160 5155 5150 5146 5141 5138 5134 5131 5129 5128 5129 5133 5138 5144 5151 5158 5165